This is the latest recevied weather packets stored in our database for station/object KB9MLJ. If no packets are shown the sender has not sent any weather packets the latest 10 day(s).
| Time | Temp. | Humidity | Pressure | Rain* | Wind** | Luminosity | Snow |
|---|---|---|---|---|---|---|---|
| 1777898077 | 12.78° C | 82% | 1005 hPa | 0 mm | - | 157 W/m² | - |
| 1777897772 | 12.22° C | 83% | 1005 hPa | 0 mm | - | 49 W/m² | - |
| 1777897469 | 11.67° C | 84% | 1005 hPa | 0 mm | - | 47 W/m² | - |
| 1777897165 | 11.67° C | 85% | 1004.7 hPa | 0 mm | - | 45 W/m² | - |
| 1777896861 | 11.67° C | 86% | 1005 hPa | 0 mm | - | 42 W/m² | - |
| 1777896559 | 11.11° C | 87% | 1005.4 hPa | 0 mm | - | 40 W/m² | - |
| 1777896256 | 10.56° C | 88% | 1005 hPa | 0 mm | - | 38 W/m² | - |
| 1777895954 | 10.56° C | 89% | 1005 hPa | 0 mm | - | 36 W/m² | - |
| 1777895651 | 10.56° C | 89% | 1005 hPa | 0 mm | - | 36 W/m² | - |
| 1777895348 | 10° C | 90% | 1005 hPa | 0 mm | - | 32 W/m² | - |
| 1777895046 | 10° C | 90% | 1005 hPa | 0 mm | - | 32 W/m² | - |
| 1777894743 | 10° C | 90% | 1005 hPa | 0 mm | - | 29 W/m² | - |
| 1777894440 | 9.44° C | 91% | 1005 hPa | 0 mm | - | 26 W/m² | - |
| 1777894137 | 9.44° C | 91% | 1005.4 hPa | 0 mm | - | 23 W/m² | - |
| 1777893834 | 9.44° C | 91% | 1005 hPa | 0 mm | - | 21 W/m² | - |
| 1777893530 | 9.44° C | 92% | 1004.7 hPa | 0 mm | - | 17 W/m² | - |
| 1777893226 | 8.89° C | 92% | 1005 hPa | 0 mm | - | 15 W/m² | - |
| 1777892923 | 8.89° C | 92% | 1005 hPa | 0 mm | - | 12 W/m² | - |
| 1777892620 | 8.89° C | 92% | 1005 hPa | 0 mm | - | 10 W/m² | - |
| 1777892315 | 8.89° C | 92% | 1005 hPa | 0 mm | - | 6 W/m² | - |
| 1777892012 | 8.89° C | 91% | 1005 hPa | 0 mm | - | 3 W/m² | - |
| 1777891710 | 8.89° C | 91% | 1005 hPa | 0 mm | - | 2 W/m² | - |
| 1777891406 | 8.89° C | 91% | 1005 hPa | 0 mm | - | 0 W/m² | - |
| 1777891101 | 8.89° C | 91% | 1005 hPa | 0 mm | - | 0 W/m² | - |
| 1777890796 | 9.44° C | 90% | 1005 hPa | 0 mm | - | 0 W/m² | - |
* Rain latest hour (hover to see other rain measurements)
** Current wind speed in m/s (hover to see current wind gust speed)